Weather History for LTCG - September, 2013

Change the Weather History Date:

Thursday, September 26, 2013

  Actual Average Record
Temperature  
Mean Temperature 66 °F -  
Max Temperature 70 °F 67 °F - (-1)
Min Temperature 61 °F 57 °F - (-1)
Growing Degree Days 16 (Base 50)    
Moisture  
Dew Point 57 °F    
Average Humidity 74    
Maximum Humidity 94    
Minimum Humidity 47    
Precipitation  
Precipitation 0.00 in - - ()
Sea Level Pressure  
Sea Level Pressure 30.11 in    
Wind  
Wind Speed 8 mph ()    
Max Wind Speed 14 mph    
Max Gust Speed 25 mph    
Visibility 6.1 miles    
Events Rain    
Averages and records for this station are not official NWS values.
T = Trace of Precipitation, MM = Missing Value Source: Averaged Metar Reports

Daily Weather History Graph

Daily Weather History Graph

Search for Another Location

Airport or City:

Trip Planner

Search our weather history database for the weather conditions in past years. The results will help you decide how hot, cold, wet, or windy it might be!

Date:

Astronomy

Sep. 26, 2013 Rise Set
Actual Time 6:12 AM EEST 6:11 PM EEST
Civil Twilight 5:44 AM EEST 6:38 PM EEST
Nautical Twilight 5:12 AM EEST 7:10 PM EEST
Astronomical Twilight 4:40 AM EEST 7:43 PM EEST
Moon 10:48 PM EEST (9/26) 12:50 PM EEST (9/26)
Length of Visible Light 12h 53m
Length of Day
11h 59m
Waning Gibbous, 57% of the Moon is Illuminated
Sep 26
Waning Gibbous
Sep 27
Last Quarter
Oct 5
New
Oct 12
First Quarter
Oct 19
Full

Hourly Weather History & Observations

Time (EEST) Temp. Dew Point Humidity Pressure Visibility Wind Dir Wind Speed Gust Speed Precip Events Conditions
12:04 AM 62.6 °F 59.0 °F 88% 30.06 in 5.0 mi SSW 12.7 mph - N/A Rain Light Rain Showers
12:20 AM 62.6 °F 57.2 °F 82% 30.06 in 5.0 mi SSW 10.4 mph - N/A Rain Light Rain Showers
12:50 AM 62.6 °F 59.0 °F 88% 30.06 in 3.7 mi SSW 11.5 mph 25.3 mph N/A Rain Rain Showers
1:20 AM 62.6 °F 59.0 °F 88% 30.09 in 4.3 mi SSW 12.7 mph 25.3 mph N/A Rain Rain Showers
1:50 AM 62.6 °F 59.0 °F 88% 30.09 in 2.8 mi SW 6.9 mph - N/A Rain Rain Showers
2:05 AM 62.6 °F 57.2 °F 82% 30.09 in 3.7 mi WSW 9.2 mph - N/A Rain Light Rain Showers
2:20 AM 62.6 °F 59.0 °F 88% 30.09 in 5.0 mi SW 9.2 mph - N/A Rain Light Rain Showers
2:50 AM 62.6 °F 59.0 °F 88% 30.12 in 6.2 mi SW 10.4 mph - N/A Rain Light Rain Showers
3:00 AM 62 °F 59 °F 85% 30.13 in 6 mi SW 10.4 mph - - Rain Light Rain Showers
3:10 AM 62.6 °F 59.0 °F 88% 30.12 in 2.8 mi SW 11.5 mph - N/A Rain Rain Showers
3:20 AM 62.6 °F 59.0 °F 88% 30.12 in 3.7 mi SW 10.4 mph - N/A Rain Light Rain Showers
3:50 AM 62.6 °F 59.0 °F 88% 30.12 in 4.3 mi WSW 8.1 mph - N/A Rain Light Rain Showers
4:20 AM 60.8 °F 59.0 °F 94% 30.15 in 3.7 mi SW 10.4 mph - N/A Rain Light Rain Showers
4:50 AM 60.8 °F 59.0 °F 94% 30.15 in 5.6 mi SW 8.1 mph - N/A Rain Light Rain Showers
5:20 AM 60.8 °F 59.0 °F 94% 30.15 in 6.2 mi SW 8.1 mph - N/A Rain Light Rain Showers
5:50 AM 60.8 °F 59.0 °F 94% 30.15 in 5.6 mi SSW 8.1 mph - N/A Rain Light Rain Showers
6:20 AM 60.8 °F 57.2 °F 88% 30.15 in 6.2 mi SSW 6.9 mph - N/A   Mostly Cloudy
6:50 AM 62.6 °F 57.2 °F 82% 30.15 in 6.2 mi SSW 6.9 mph - N/A   Mostly Cloudy
7:20 AM 62.6 °F 57.2 °F 82% 30.18 in 6.2 mi SSW 6.9 mph - N/A   Mostly Cloudy
7:50 AM 62.6 °F 57.2 °F 82% 30.18 in 6.2 mi SSW 4.6 mph - N/A   Scattered Clouds
8:20 AM 64.4 °F 57.2 °F 77% 30.18 in 6.2 mi SSW 3.5 mph - N/A   Mostly Cloudy
8:50 AM 68.0 °F 55.4 °F 64% 30.18 in 6.2 mi Variable 2.3 mph - N/A   Mostly Cloudy
9:00 AM 68 °F 56 °F 57% 30.19 in 12 mi ESE 2.3 mph - -   Partly Cloudy
9:20 AM 68.0 °F 55.4 °F 64% 30.18 in 6.2 mi NE 4.6 mph - N/A   Mostly Cloudy
9:50 AM 68.0 °F 57.2 °F 68% 30.18 in 6.2 mi ENE 4.6 mph - N/A   Scattered Clouds
10:20 AM 68.0 °F 55.4 °F 64% 30.18 in 6.2 mi NE 5.8 mph - N/A   Scattered Clouds
10:50 AM 68.0 °F 55.4 °F 64% 30.18 in 6.2 mi ENE 6.9 mph - N/A   Scattered Clouds
11:20 AM 68.0 °F 55.4 °F 64% 30.15 in 6.2 mi NE 6.9 mph - N/A   Scattered Clouds
11:50 AM 69.8 °F 55.4 °F 60% 30.15 in 6.2 mi ENE 6.9 mph - N/A   Scattered Clouds
12:20 PM 68.0 °F 57.2 °F 68% 30.15 in 6.2 mi East 8.1 mph - N/A   Scattered Clouds
12:50 PM 69.8 °F 55.4 °F 60% 30.15 in 6.2 mi East 9.2 mph - N/A   Partly Cloudy
1:20 PM 69.8 °F 53.6 °F 56% 30.15 in 6.2 mi East 9.2 mph - N/A   Partly Cloudy
1:50 PM 69.8 °F 53.6 °F 56% 30.12 in 6.2 mi East 9.2 mph - N/A   Scattered Clouds
2:20 PM 69.8 °F 55.4 °F 60% 30.12 in 6.2 mi East 10.4 mph - N/A   Scattered Clouds
2:50 PM 69.8 °F 55.4 °F 60% 30.12 in 6.2 mi East 11.5 mph - N/A   Scattered Clouds
3:00 PM 70 °F 54 °F 47% 30.14 in 12 mi East 11.5 mph - -   Partly Cloudy
3:20 PM 69.8 °F 55.4 °F 60% 30.12 in 6.2 mi East 11.5 mph - N/A   Scattered Clouds
3:50 PM 69.8 °F 55.4 °F 60% 30.09 in 6.2 mi East 11.5 mph - N/A   Scattered Clouds
4:20 PM 69.8 °F 57.2 °F 64% 30.09 in 6.2 mi East 13.8 mph - N/A   Scattered Clouds
4:50 PM 69.8 °F 57.2 °F 64% 30.09 in 6.2 mi East 11.5 mph - N/A   Partly Cloudy
5:20 PM 68.0 °F 57.2 °F 68% 30.06 in 6.2 mi East 11.5 mph - N/A   Partly Cloudy
5:50 PM 68.0 °F 57.2 °F 68% 30.06 in 6.2 mi East 10.4 mph - N/A   Partly Cloudy
6:20 PM 68.0 °F 57.2 °F 68% 30.06 in 6.2 mi SE 8.1 mph - N/A   Partly Cloudy
6:50 PM 68.0 °F 57.2 °F 68% 30.06 in 6.2 mi SSE 6.9 mph - N/A   Partly Cloudy
7:20 PM 66.2 °F 57.2 °F 73% 30.06 in 6.2 mi SSE 8.1 mph - N/A   Partly Cloudy
7:50 PM 66.2 °F 57.2 °F 73% 30.04 in 6.2 mi SSE 6.9 mph - N/A   Partly Cloudy
8:20 PM 66.2 °F 57.2 °F 73% 30.04 in 6.2 mi South 8.1 mph - N/A   Partly Cloudy
8:50 PM 66.2 °F 57.2 °F 73% 30.04 in 6.2 mi SSW 8.1 mph - N/A   Partly Cloudy
9:00 PM 65 °F 57 °F 68% 30.04 in 12 mi SSW 8.1 mph - -   Scattered Clouds
9:20 PM 64.4 °F 55.4 °F 73% 30.01 in 6.2 mi SSW 3.5 mph - N/A   Partly Cloudy
9:50 PM 64.4 °F 53.6 °F 68% 30.01 in 6.2 mi Variable 4.6 mph - N/A   Partly Cloudy
10:20 PM 62.6 °F 53.6 °F 72% 30.01 in 6.2 mi SSW 5.8 mph - N/A   Partly Cloudy
10:50 PM 62.6 °F 53.6 °F 72% 30.01 in 6.2 mi South 4.6 mph - N/A   Partly Cloudy
11:20 PM 62.6 °F 53.6 °F 72% 29.98 in 6.2 mi South 5.8 mph - N/A   Partly Cloudy
11:50 PM 64.4 °F 53.6 °F 68% 29.98 in 6.2 mi South 5.8 mph - N/A   Partly Cloudy